Main page
METAR-TAF:

METAR-TAF

Airports :

Formosa International Airport

Formosa, Argentina

latitude: 26-12S, longitude: 058-14W, elevation: 59 m

Current weather observation

The report was made 1 hour and 11 minutes ago, at 04:00 UTC
Wind 8 kt from the Northeast
Temperature 30°C
Humidity 66%
Pressure 1005 hPa
Visibility 10 km or more
no clouds below 1500 m and no cumulonimbus

METAR: SARF 080400Z 05008KT CAVOK 30/23 Q1005

Time: 02:11 (05:11 UTC)

Forecast

The report was made 6 hours and 11 minutes ago, at 23:00 UTC
Forecast valid from 08 at 00 UTC to 08 at 24 UTC
Wind 5 kt from the East
Visibility 10 km or more
no clouds below 1500 m and no cumulonimbus

TAF: SARF 072300Z 0800/0824 09005KT CAVOK TX40/0819Z TN25/0809Z

Weather observations and forecasts of more than 4000 airports (METAR and TAF reports).

The available stations are represented by yellow and red dots on the map.

Hover mouse over dot to see the name of the station.

Then click to see weather observations and forecasts.

To change the map : click on the green buttons with a black cross to zoom in, on the green button with a dash to zoom out, or on the green arrows for adjacent maps.


METAR-TAF: